Temperature
2 2 2 2 2 2 2 2 2 2 2 3 3 3 2 2 2 2 2 2 2 2 2 2 2 2 2 2 2 2 2 2 2 3 3 3 3 3 3 3 3 4 4
2 1 2 2 2 2 2 2 2 2 2 2 2 2 2 2 2 2 2 1 1 1 1 1 1 1 1 2 1 2 2 2 1 2 2 3 3 3 3 3 3 3 3
1 1 1 1 1 1 1 1 1 1 1 1 1 1 1 1 1 1 1 1 1 1 1 1 1 1 1 1 1 1 1 1 1 1 1 2 2 2 2 2 2 2 2
0 0 0 0 0 0 0 1 1 1 1 0 0 0 0 0 0 0 0 0 -0 0 0 0 0 0 0 0 0 0 0 0 0 0 0 1 1 1 1 1 1 2 2
-0 -0 -0 -0 -0 -0 -0 -0 -0 -0 -0 -0 -0 -0 -0 -0 -0 -0 -0 -1 -1 -1 -1 -1 -1 -1 -1 -1 -1 -1 -1 -1 -1 -1 -1 -0 -0 0 0 0 0 1 1
-1 -1 -1 -1 -1 -1 -1 -1 -1 -1 -1 -1 -1 -1 -1 -1 -1 -1 -1 -1 -1 -1 -1 -1 -1 -2 -2 -2 -2 -2 -2 -2 -2 -1 -1 -1 -1 -0 -0 -0 -0 -0 -0
-2 -2 -2 -2 -2 -2 -2 -2 -2 -2 -2 -2 -2 -2 -2 -2 -2 -2 -2 -2 -2 -2 -2 -2 -2 -2 -2 -3 -3 -3 -3 -3 -2 -2 -2 -2 -1 -1 -1 -1 -1 -1 -1
-3 -3 -3 -3 -3 -2 -2 -2 -2 -2 -2 -2 -2 -2 -3 -2 -3 -3 -3 -3 -3 -3 -3 -3 -3 -3 -3 -3 -3 -3 -3 -3 -3 -3 -3 -2 -2 -2 -2 -2 -1 -1 -1
-4 -3 -3 -3 -3 -3 -3 -3 -3 -3 -3 -3 -3 -3 -3 -3 -3 -3 -3 -3 -3 -3 -3 -3 -3 -3 -4 -4 -4 -4 -4 -3 -4 -3 -3 -3 -3 -3 -3 -3 -2 -2 -2
-4 -4 -4 -4 -4 -4 -4 -4 -4 -4 -4 -4 -4 -4 -4 -4 -4 -4 -4 -4 -4 -4 -4 -4 -4 -4 -4 -4 -4 -4 -4 -4 -4 -4 -4 -4 -4 -3 -3 -3 -3 -3 -3
-5 -5 -5 -5 -5 -5 -5 -5 -5 -5 -5 -5 -5 -5 -5 -5 -5 -5 -5 -5 -5 -5 -5 -5 -5 -5 -5 -5 -5 -5 -4 -5 -5 -5 -4 -4 -4 -4 -4 -4 -4 -4 -4
-6 -6 -6 -6 -6 -6 -6 -6 -6 -6 -6 -6 -6 -6 -6 -6 -6 -5 -5 -5 -5 -5 -5 -5 -5 -5 -5 -5 -5 -5 -5 -5 -5 -5 -5 -5 -5 -5 -5 -5 -4 -4 -4
-7 -7 -7 -7 -6 -6 -6 -6 -7 -7 -7 -7 -7 -7 -7 -7 -7 -6 -6 -6 -6 -6 -6 -6 -6 -6 -6 -6 -6 -6 -6 -6 -6 -6 -6 -6 -6 -5 -5 -5 -5 -5 -5
-8 -8 -8 -7 -7 -7 -7 -7 -7 -8 -8 -8 -8 -8 -8 -8 -7 -7 -7 -7 -7 -7 -7 -7 -7 -6 -6 -6 -6 -6 -6 -7 -7 -7 -7 -7 -6 -6 -6 -6 -6 -6 -6
-9 -9 -9 -9 -9 -8 -8 -8 -8 -9 -9 -9 -9 -9 -8 -8 -8 -8 -8 -8 -8 -8 -7 -7 -7 -7 -7 -7 -7 -7 -7 -7 -7 -8 -8 -8 -7 -7 -7 -7 -7 -7 -7
-10 -10 -10 -10 -10 -9 -9 -9 -9 -9 -9 -10 -9 -9 -9 -9 -9 -9 -9 -9 -8 -8 -8 -8 -8 -8 -8 -8 -8 -8 -8 -8 -8 -8 -8 -8 -8 -8 -8 -8 -8 -7 -7
-11 -11 -11 -11 -10 -10 -10 -10 -10 -10 -10 -10 -10 -10 -10 -10 -10 -10 -10 -9 -9 -9 -9 -9 -9 -9 -9 -8 -8 -9 -9 -9 -8 -9 -9 -9 -9 -9 -9 -9 -8 -8 -8
-11 -11 -11 -11 -11 -11 -11 -11 -11 -11 -11 -11 -11 -11 -11 -11 -11 -11 -10 -10 -10 -10 -10 -10 -10 -10 -10 -9 -9 -9 -9 -9 -9 -9 -9 -9 -9 -9 -9 -9 -9 -9 -9
-12 -12 -12 -12 -12 -12 -12 -12 -12 -12 -12 -12 -11 -11 -11 -11 -11 -11 -11 -11 -11 -11 -11 -11 -11 -11 -10 -10 -10 -10 -10 -10 -10 -10 -10 -10 -10 -10 -9 -9 -9 -9 -9
-12 -12 -12 -12 -12 -12 -13 -13 -13 -12 -12 -12 -12 -12 -12 -12 -12 -12 -12 -12 -12 -12 -12 -11 -11 -11 -11 -11 -11 -11 -11 -10 -10 -10 -10 -10 -10 -10 -10 -10 -10 -10 -10
-13 -13 -13 -13 -13 -13 -13 -13 -13 -13 -13 -13 -13 -13 -13 -13 -13 -13 -13 -12 -12 -12 -12 -12 -12 -12 -12 -12 -12 -11 -11 -11 -11 -11 -11 -11 -10 -10 -10 -10 -10 -10 -10
-13 -13 -13 -13 -14 -14 -14 -14 -14 -14 -13 -13 -13 -13 -13 -13 -13 -13 -13 -13 -13 -13 -13 -13 -13 -12 -12 -12 -12 -12 -12 -12 -12 -11 -11 -11 -11 -11 -11 -11 -11 -11 -11
-14 -14 -14 -14 -14 -14 -14 -14 -14 -14 -14 -14 -14 -14 -14 -14 -14 -14 -14 -13 -13 -13 -13 -13 -13 -13 -13 -13 -13 -13 -13 -12 -12 -12 -12 -12 -12 -12 -11 -11 -11 -11 -11
-14 -14 -14 -14 -14 -14 -14 -14 -14 -14 -14 -14 -14 -14 -14 -14 -14 -14 -14 -14 -14 -14 -14 -14 -13 -13 -13 -13 -13 -13 -13 -13 -13 -13 -12 -12 -12 -12 -12 -12 -12 -12 -12
-15 -15 -15 -15 -15 -15 -15 -15 -15 -15 -15 -15 -15 -15 -15 -15 -15 -14 -14 -14 -14 -14 -14 -14 -14 -14 -14 -14 -13 -13 -13 -13 -13 -13 -13 -13 -13 -13 -13 -13 -13 -12 -12
-15 -15 -15 -15 -15 -15 -15 -15 -15 -15 -15 -15 -15 -15 -15 -15 -15 -15 -15 -15 -15 -14 -14 -14 -14 -14 -14 -14 -14 -14 -13 -13 -13 -13 -14 -14 -13 -13 -13 -13 -13 -13 -13
Wind_Speed
3 3 4 4 3 4 4 4 4 4 5 6 6 6 6 6 6 5 5 5 5 5 4 5 5 4 3 3 3 3 3 3 5 4 3 2 4 5 6 8 9 9 10
3 3 3 4 3 3 4 4 4 4 5 5 6 6 6 6 6 6 7 6 7 7 6 5 6 5 5 4 3 4 4 4 4 5 3 3 4 6 6 6 7 9 10
3 3 3 3 3 4 4 4 4 4 4 4 5 6 7 7 7 7 7 7 7 7 7 7 7 6 6 4 4 4 4 4 4 4 4 3 3 4 4 5 6 7 9
3 3 3 3 4 4 3 4 4 4 4 5 5 6 6 7 7 7 7 7 7 7 7 7 7 7 7 6 6 5 4 4 4 4 4 3 3 3 4 5 5 5 6
3 3 3 3 3 2 3 3 3 3 4 4 5 5 5 6 7 8 8 8 8 7 7 7 7 8 9 8 6 6 5 5 4 5 4 3 4 3 5 4 5 4 6
3 3 3 2 2 2 3 2 3 3 3 4 4 5 5 5 8 10 9 8 8 8 8 7 7 8 9 10 11 10 8 7 6 6 5 5 6 5 4 4 4 4 5
4 4 3 3 2 3 3 3 3 3 3 4 4 5 6 7 9 10 10 7 7 7 8 7 6 6 8 6 8 10 10 11 10 8 7 7 6 5 5 5 6 6 6
4 4 3 3 3 3 3 4 4 3 3 4 4 5 5 6 8 9 9 6 6 7 7 7 7 7 7 7 6 7 7 7 9 8 8 7 6 5 6 6 6 5 4
4 4 4 3 3 3 3 3 3 3 3 3 3 4 4 5 8 9 8 5 5 6 6 7 7 7 9 9 7 7 7 7 9 11 11 10 10 10 7 4 4 4 5
4 4 3 3 3 3 3 3 2 2 3 3 3 3 4 5 7 8 8 4 5 5 5 6 9 9 10 11 8 8 8 7 5 6 7 9 9 9 10 6 5 5 4
5 4 3 3 3 3 3 3 2 2 2 2 3 3 3 5 5 7 7 4 5 5 5 5 5 9 11 11 10 8 9 7 5 5 5 5 4 5 5 6 6 6 6
5 4 4 3 3 2 2 2 2 2 2 2 2 3 3 3 4 5 6 6 5 5 5 5 5 9 10 10 9 8 9 7 4 4 5 5 5 5 5 6 7 8 7
4 4 4 4 3 3 2 2 2 2 2 2 2 2 3 3 3 5 6 6 6 4 4 6 7 8 8 7 8 8 6 4 4 5 5 5 5 4 3 3 4 5 6
4 4 4 3 3 3 3 2 2 2 2 2 2 2 3 3 3 3 3 4 6 5 4 5 7 7 6 6 6 5 4 4 4 5 4 4 3 3 3 3 4 3 4
4 4 4 4 3 3 3 3 3 2 3 3 2 3 3 3 5 7 6 4 4 4 4 3 3 3 4 3 3 3 3 3 4 3 3 3 3 3 3 3 3 4 4
4 4 4 3 3 3 3 3 5 4 5 6 5 5 4 5 7 7 8 8 7 5 3 2 2 2 3 3 3 3 3 3 3 3 3 4 4 4 4 3 3 4 5
3 4 3 3 3 3 3 3 3 5 6 6 6 6 5 6 6 7 7 6 5 4 2 2 2 2 3 3 3 3 3 3 3 3 4 4 4 4 4 4 4 5 5
3 4 4 3 3 3 3 3 3 3 4 4 6 7 7 7 7 7 6 4 3 2 1 2 2 2 2 2 2 3 3 3 3 4 4 4 4 4 4 4 5 5 5
3 3 3 3 3 3 3 3 3 3 3 3 4 5 8 8 7 7 6 3 2 2 2 2 2 2 2 2 2 3 3 3 3 4 4 4 4 4 4 5 4 6 5
3 5 4 3 3 3 3 3 3 3 3 3 3 4 4 4 3 4 3 2 2 3 2 2 2 2 2 2 3 3 3 3 3 4 4 4 4 4 5 5 4 4 5
2 3 5 4 3 3 3 3 3 3 3 3 3 4 6 3 3 3 3 3 3 2 3 3 2 2 2 2 3 3 3 3 3 3 4 4 3 4 4 4 4 4 4
2 2 2 3 3 3 3 2 2 3 3 3 4 4 7 4 3 3 3 3 3 2 2 2 2 2 2 2 2 3 3 3 3 3 3 3 3 3 3 4 4 4 4
2 2 3 3 3 4 4 3 3 3 3 3 3 3 3 3 3 3 3 3 3 3 3 3 3 3 3 3 4 3 4 4 4 3 4 4 4 4 4 4 4 5 5
2 2 2 3 3 2 3 3 3 3 3 3 3 3 3 3 3 4 4 3 3 3 3 3 3 4 5 5 5 6 6 6 6 6 5 5 5 4 4 4 4 4 5
2 2 2 3 3 3 3 3 3 4 4 4 3 3 3 3 3 4 4 3 4 4 4 5 4 5 5 6 7 7 8 9 9 7 6 5 5 5 4 4 4 4 4
2 2 2 3 3 3 3 4 4 4 4 4 4 4 4 4 4 4 4 4 4 4 5 5 6 6 7 7 8 9 10 10 9 8 6 4 5 5 4 4 4 4 4
Wind_Direction
253 244 234 220 215 221 214 214 210 208 203 200 201 199 201 202 203 205 214 210 212 219 218 215 223 223 219 218 218 222 226 225 243 260 257 223 210 218 228 227 228 230 235
265 256 247 230 210 221 223 216 213 208 209 205 202 202 206 207 207 210 216 215 213 216 219 219 225 223 223 221 220 228 232 228 233 253 261 241 230 219 216 218 229 232 235
284 269 257 244 218 221 229 218 212 210 211 212 207 208 211 211 212 216 217 219 219 219 218 217 221 219 225 226 225 228 234 241 237 243 253 251 246 231 223 230 231 233 239
297 272 261 254 233 222 232 220 212 212 209 211 212 215 216 217 217 220 219 222 226 226 224 220 219 219 223 223 226 227 230 237 241 244 250 251 247 235 219 224 240 232 238
301 280 272 269 259 234 233 229 216 216 222 218 217 222 224 223 222 219 220 223 224 226 227 223 223 226 228 227 229 224 222 227 237 242 248 249 243 227 226 222 240 244 246
303 293 289 282 278 257 241 234 229 227 227 223 223 225 229 237 241 235 229 223 224 224 225 224 225 227 232 237 239 236 230 227 230 235 245 245 242 236 232 234 241 254 254
302 302 299 293 281 273 262 244 236 235 230 229 231 230 233 240 244 242 241 232 227 228 224 219 226 228 229 230 241 244 240 239 235 233 241 246 247 236 227 232 233 240 253
301 302 304 296 286 277 260 245 241 241 238 236 237 236 238 248 250 246 246 237 234 232 226 220 219 221 224 225 229 238 240 241 240 237 240 244 248 243 232 233 239 249 269
306 304 306 303 291 281 272 257 247 244 249 255 252 242 245 258 258 253 247 233 237 236 231 224 221 220 230 228 224 232 242 246 246 244 248 251 252 254 248 239 234 238 258
309 304 306 301 289 283 277 273 270 253 255 263 275 268 258 260 266 260 251 233 236 240 236 229 231 231 232 227 222 226 237 240 241 251 252 253 251 250 244 233 228 234 249
314 310 311 309 297 285 283 285 280 263 255 257 268 277 272 273 274 269 259 241 235 238 240 235 234 239 238 236 235 231 238 239 238 241 246 249 247 243 236 234 230 230 235
320 319 317 318 314 310 296 292 284 260 249 254 260 274 276 279 283 280 275 269 261 243 244 239 236 238 241 244 244 243 242 240 233 234 240 244 241 237 236 232 235 237 239
334 328 325 329 325 317 297 289 288 273 257 265 268 278 292 295 294 295 288 286 282 266 258 256 251 247 245 243 248 250 242 233 230 237 241 243 242 240 236 236 240 244 251
340 335 334 338 336 331 322 311 298 287 272 273 276 281 291 297 298 296 287 286 286 279 273 270 263 254 245 241 242 240 231 230 232 239 244 247 244 235 239 237 238 238 249
343 343 344 343 337 339 343 339 323 304 288 288 273 270 273 277 285 292 292 284 273 268 276 264 248 241 229 227 227 225 220 224 234 232 232 236 243 244 245 236 232 230 237
344 345 342 337 338 339 342 347 348 336 334 328 319 306 299 295 300 298 298 295 290 288 287 271 259 252 244 236 230 227 224 225 228 231 229 229 236 239 244 243 239 231 236
338 338 337 338 340 338 337 335 339 346 349 348 344 334 324 319 317 314 308 300 296 295 274 264 261 260 261 248 234 232 234 230 226 229 234 233 234 236 237 240 240 239 236
337 335 337 334 335 335 337 335 334 334 336 341 344 345 344 342 342 341 342 341 325 319 289 277 276 273 263 260 248 242 244 239 229 227 230 235 234 234 234 236 236 234 236
336 334 333 333 335 338 338 335 333 330 328 329 338 342 345 344 347 351 359 1 341 324 314 308 304 301 290 273 269 257 246 244 242 233 232 233 232 232 236 235 236 245 240
330 332 338 339 340 338 336 332 330 329 329 330 328 330 334 343 349 342 343 340 327 317 315 303 294 288 290 281 270 269 263 253 244 241 243 236 232 233 235 233 231 237 238
325 328 333 335 335 332 330 325 325 328 323 319 316 316 330 338 332 329 326 323 312 306 307 303 295 287 281 286 281 270 267 263 254 248 250 248 240 239 242 236 232 235 239
325 325 328 325 326 326 324 326 326 318 315 315 316 318 327 334 329 325 321 319 317 312 305 295 288 282 272 266 270 273 267 266 264 256 253 253 250 244 243 240 233 232 235
319 319 321 323 324 321 328 327 319 315 311 310 311 317 320 319 317 313 311 311 313 311 307 297 287 288 288 285 273 258 255 257 256 256 252 254 252 249 243 238 235 233 234
309 308 312 318 321 319 314 314 315 311 307 306 306 306 307 308 307 306 305 307 306 303 299 293 285 284 287 291 288 279 272 270 265 254 244 243 247 251 249 241 240 242 239
300 301 303 305 307 307 307 307 307 307 305 303 300 299 300 300 300 300 300 297 297 295 294 290 286 282 283 285 285 282 278 276 272 263 247 238 237 237 240 239 238 243 242
296 298 300 303 303 302 301 302 303 304 302 299 296 293 292 291 290 292 293 291 292 292 293 291 288 286 286 286 285 283 283 281 276 268 254 234 230 234 234 234 231 233 237
Height
1470 1472 1473 1473 1475 1475 1476 1477 1478 1480 1481 1482 1483 1485 1486 1488 1490 1491 1493 1494 1496 1497 1499 1500 1501 1503 1504 1505 1506 1508 1509 1510 1510 1509 1511 1512 1513 1514 1515 1516 1517 1518 1520
1466 1467 1468 1469 1470 1470 1471 1472 1474 1475 1476 1477 1478 1479 1481 1483 1484 1485 1487 1488 1490 1491 1493 1494 1496 1497 1498 1499 1500 1501 1503 1504 1505 1504 1504 1506 1507 1508 1509 1510 1511 1512 1513
1462 1462 1463 1464 1465 1465 1466 1468 1468 1469 1471 1472 1473 1474 1475 1477 1478 1480 1481 1483 1484 1485 1487 1488 1489 1491 1492 1493 1494 1495 1496 1498 1499 1499 1498 1500 1501 1502 1503 1504 1505 1505 1506
1458 1458 1458 1459 1460 1460 1462 1463 1463 1464 1465 1466 1468 1469 1470 1471 1472 1474 1475 1476 1478 1479 1480 1482 1483 1484 1485 1487 1488 1488 1490 1491 1492 1492 1492 1493 1494 1495 1496 1496 1497 1499 1499
1454 1454 1454 1454 1455 1456 1457 1458 1458 1459 1460 1461 1462 1463 1464 1465 1466 1467 1469 1470 1471 1473 1474 1475 1477 1478 1479 1480 1481 1482 1483 1484 1485 1486 1486 1487 1487 1489 1489 1490 1491 1491 1492
1450 1449 1450 1450 1450 1451 1452 1453 1453 1454 1455 1456 1457 1457 1458 1459 1460 1462 1463 1463 1465 1466 1467 1469 1470 1472 1473 1474 1475 1476 1478 1478 1478 1479 1480 1480 1481 1483 1484 1484 1484 1485 1485
1446 1445 1445 1446 1446 1446 1447 1448 1449 1449 1450 1450 1451 1452 1452 1453 1454 1456 1456 1457 1458 1459 1460 1462 1463 1465 1466 1467 1469 1470 1471 1472 1473 1474 1473 1473 1475 1476 1477 1478 1478 1477 1477
1442 1441 1441 1441 1442 1442 1442 1443 1444 1444 1445 1445 1446 1446 1447 1447 1449 1450 1451 1452 1452 1453 1454 1455 1457 1458 1459 1461 1462 1463 1463 1465 1466 1466 1467 1468 1469 1470 1471 1471 1471 1471 1471
1438 1437 1437 1438 1438 1438 1438 1438 1439 1439 1439 1440 1440 1441 1441 1442 1443 1444 1445 1445 1446 1447 1448 1449 1450 1451 1453 1454 1456 1456 1457 1458 1459 1460 1460 1461 1462 1463 1464 1465 1464 1464 1463
1434 1434 1434 1434 1434 1434 1434 1434 1434 1434 1434 1435 1435 1436 1436 1436 1437 1438 1439 1440 1440 1441 1442 1443 1444 1445 1446 1448 1449 1450 1450 1451 1452 1453 1453 1454 1455 1456 1457 1457 1458 1458 1457
1431 1430 1430 1430 1430 1430 1429 1429 1429 1429 1430 1430 1430 1430 1431 1431 1432 1433 1433 1434 1434 1435 1435 1436 1437 1439 1440 1442 1443 1443 1443 1445 1445 1446 1446 1447 1448 1449 1449 1450 1451 1452 1451
1427 1427 1426 1426 1425 1425 1425 1425 1425 1425 1424 1425 1425 1425 1425 1426 1427 1427 1428 1429 1429 1429 1429 1430 1431 1433 1434 1435 1436 1437 1438 1439 1439 1439 1440 1440 1440 1441 1442 1443 1444 1445 1445
1424 1423 1423 1422 1422 1421 1421 1420 1420 1420 1420 1420 1420 1420 1420 1421 1421 1422 1423 1423 1424 1424 1424 1424 1426 1427 1428 1429 1430 1431 1432 1432 1433 1433 1433 1433 1434 1435 1436 1437 1438 1438 1439
1422 1421 1420 1419 1418 1418 1418 1417 1417 1416 1416 1416 1416 1416 1416 1416 1416 1417 1417 1418 1418 1418 1419 1419 1420 1421 1422 1422 1423 1424 1425 1426 1426 1427 1427 1428 1428 1429 1429 1430 1431 1431 1431
1420 1418 1417 1416 1416 1415 1414 1414 1413 1413 1413 1413 1412 1412 1412 1411 1412 1413 1413 1413 1413 1413 1413 1414 1414 1415 1416 1416 1417 1418 1419 1420 1421 1421 1422 1422 1422 1423 1423 1424 1425 1425 1425
1417 1416 1415 1414 1413 1412 1411 1410 1410 1410 1409 1409 1409 1409 1408 1409 1409 1408 1408 1408 1408 1409 1409 1409 1409 1409 1410 1411 1412 1413 1413 1414 1415 1416 1416 1417 1417 1417 1418 1418 1418 1419 1418
1416 1414 1413 1412 1411 1410 1409 1408 1407 1407 1406 1406 1406 1406 1405 1405 1405 1404 1403 1403 1404 1404 1404 1404 1404 1405 1405 1406 1407 1408 1408 1409 1410 1411 1411 1411 1412 1412 1412 1412 1412 1412 1413
1414 1413 1412 1411 1410 1408 1407 1406 1405 1404 1403 1403 1403 1403 1402 1402 1401 1400 1400 1400 1400 1400 1400 1400 1400 1401 1401 1402 1402 1403 1403 1404 1405 1405 1405 1406 1406 1406 1406 1406 1406 1407 1407
1413 1412 1411 1410 1408 1407 1406 1405 1404 1403 1402 1401 1400 1400 1400 1399 1398 1398 1397 1397 1396 1396 1396 1396 1397 1397 1397 1397 1398 1398 1398 1399 1399 1400 1400 1400 1401 1401 1401 1401 1401 1401 1402
1412 1411 1410 1408 1407 1406 1405 1403 1402 1401 1400 1399 1398 1398 1397 1396 1395 1395 1394 1394 1394 1393 1393 1393 1393 1393 1393 1393 1393 1393 1394 1394 1394 1394 1395 1395 1395 1395 1395 1395 1395 1396 1396
1410 1409 1408 1406 1405 1404 1403 1401 1400 1399 1398 1397 1397 1396 1396 1394 1393 1393 1392 1391 1390 1390 1390 1390 1389 1389 1389 1389 1389 1389 1389 1389 1389 1389 1389 1390 1390 1390 1390 1390 1390 1391 1391
1408 1407 1405 1404 1403 1402 1401 1400 1398 1397 1396 1395 1394 1393 1393 1392 1391 1390 1389 1388 1387 1387 1387 1386 1386 1385 1385 1385 1384 1384 1384 1384 1384 1384 1384 1385 1385 1385 1385 1385 1384 1385 1385
1406 1405 1403 1402 1401 1400 1399 1397 1396 1395 1394 1392 1391 1390 1390 1389 1388 1386 1385 1384 1384 1383 1383 1382 1382 1381 1381 1380 1380 1380 1379 1379 1379 1379 1379 1379 1380 1380 1380 1379 1379 1380 1380
1404 1402 1401 1400 1399 1398 1396 1395 1394 1392 1391 1390 1389 1387 1386 1385 1384 1383 1382 1381 1380 1379 1379 1378 1377 1377 1376 1376 1376 1375 1374 1374 1374 1374 1374 1375 1374 1374 1374 1374 1375 1375 1375
1401 1400 1399 1398 1396 1395 1394 1392 1391 1390 1389 1387 1386 1384 1383 1382 1381 1380 1378 1377 1377 1376 1375 1374 1373 1372 1372 1371 1371 1370 1370 1369 1370 1370 1370 1370 1370 1370 1370 1370 1370 1370 1370
1399 1398 1396 1395 1394 1392 1391 1390 1388 1387 1385 1384 1383 1381 1380 1379 1377 1376 1375 1374 1373 1371 1370 1370 1369 1368 1367 1366 1366 1365 1365 1365 1365 1365 1366 1366 1365 1365 1365 1365 1365 1366 1366